sat.trackr.live / text

‹ back to catalog

STARLINK-35796

NORAD 66541 · 2025-265AB

PAYLOAD ACTIVE UNKNOWN

§ Identity

Operator
Country
US
Launch date
2025-11-19
Launch site
AFETR
Launch vehicle
Mass (kg)
RCS (m²)

Purposes: comms

External: N2YO · Heavens-Above · Gunter

§ Orbital elements

Epoch: 2026-05-24T20:59:17.998368Z

Period
94.27 min
Inclination
42.9980°
Eccentricity
0.0001743
Mean motion
15.27587453 rev/d
Perigee alt
481.8 km
Apogee alt
484.2 km
Semi-major
6,861.2 km
B*
4.9593e-4
RAAN
207.7921°
Arg perigee
274.9915°
Mean anomaly
85.0738°
Rev number
2,876

§ Raw data

STARLINK-357961 66541U 25265AB  26144.87451387  .00013413  00000+0  49593-3 0  99962 66541  42.9980 207.7921 0001743 274.9915  85.0738 15.27587453 28767

JSON: /api/v1/satellites/66541 · /tle

For live sub-satellite position, see the globe view (requires WebGL).

§ Visibility from observer

Set your observer location to see the next 7 days of passes ≥ 10°. The values pass through the URL so the page stays shareable.

No JS? Fill the form by hand. The geolocation button needs JavaScript.